Regional Weather Roundup
Issued by NWS

Home | Current Version | Previous Version | Graphics & Text | Print | Product List | Glossary On
Versions: 1 2 3 4 5 6 7 8 9 10 11 12 13 14 15 16 17 18 19 20 21 22 23 24 25 26 27 28 29 30 31 32 33 34 35 36 37 38 39 40 41 42 43 44 45 46 47 48 49 50
682
ASUS45 KCYS 240910
RWRWY

WYOMING REGIONAL WEATHER ROUNDUP
NATIONAL WEATHER SERVICE CHEYENNE WY
200 AM MST TUE JAN 24 2017

NOTE:  "FAIR" INDICATES FEW OR NO CLOUDS BELOW 12,000 FEET
WITH NO SIGNIFICANT WEATHER AND/OR OBSTRUCTIONS TO VISIBILITY.

WYZ001-241000-
YELLOWSTONE NATIONAL PARK

CITY           SKY/WX    TMP DP  RH WIND       PRES   REMARKS
LK YELLOWSTONE   N/A     17  11  77 CALM      29.52R
W YELLOWSTONE  NOT AVBL

$$
WYZ002>013-054>058-071-098>099-241000-
NORTHERN WYOMING

CITY           SKY/WX    TMP DP  RH WIND       PRES   REMARKS
JACKSON        CLOUDY    23  23 100 SW5       29.50R VSB 1   WCI  17
CODY           LGT SNOW  19  16  88 NW15      29.67S FOG     WCI   5
GREYBULL       LGT SNOW  21  18  88 CALM      29.66R FOG
WORLAND        LGT SNOW  22  21  96 NW10      29.64F VSB 1   WCI  11
SHERIDAN       FLURRIES  20  18  92 W6        29.74S WCI  12
BUFFALO        LGT SNOW  18  14  84 N17G26    29.66S FOG     WCI   3
GILLETTE       FOG       17  16  95 N12       29.68R VSB 3/4 WCI   4
HULETT         FOG       16  12  86 MISG      29.71F VSB 3/4
NEWCASTLE      LGT SNOW  21  19  93 NW5       29.64S WCI  15

$$
WYZ014>020-022>026-101>103-241000-
CENTRAL WYOMING

CITY           SKY/WX    TMP DP  RH WIND       PRES   REMARKS
BIG PINEY      LGT SNOW  20  18  92 NE13      29.48R FOG     WCI   7
PINEDALE       CLOUDY    21  19  93 S6        29.49R WCI  14
DUBOIS         NOT AVBL
LANDER         LGT SNOW  21  20  96 NW5       29.56S VSB 3/4 WCI  15
RIVERTON       LGT SNOW  20  17  88 N22       29.56S VSB 3/4 WCI   3
CASPER         CLOUDY    15  12  88 NE16      29.57S WCI  -1
DOUGLAS        FLURRIES  22  19  89 NE6       29.59S WCI  14

$$
WYZ021-027>030-104>119-241000-
SOUTHERN WYOMING

CITY           SKY/WX    TMP DP  RH WIND       PRES   REMARKS
EVANSTON       MOCLDY    17  14  88 SW15      29.53F WCI   2
ROCK SPRINGS   LGT SNOW  21  16  81 W17       29.51S WCI   7
RAWLINS        LGT SNOW  23  17  78 W18G28    29.49S WCI   9
LARAMIE        FAIR      19  12  74 SW5       29.48F WCI  12
CHEYENNE       CLOUDY    30  28  92 W7        29.51R WCI  23
TORRINGTON     CLOUDY    25  20  81 NE6       29.58R WCI  18

$$




USA.gov is the U.S. government's official web portal to all federal, state and local government web resources and services.